Theta_e
307 306 307 307 308 310 309 308 312 318 322 323 324 324 325 325 325 324 326 326 325 325 324 324 322 322 322 323 323 325 325 325 326 327 328 329 328 328 327 327 327 327 326 326 326 325 326 326 325 324 324 322 321 321 321 320 320 319 318 316 316 316 317 315 313 313 313 315 317 316 317 318 317 316 317 318 318 318 318 318 318 317 317 317 317
305 305 306 305 305 307 308 309 309 312 317 322 323 324 325 324 324 326 326 326 326 326 326 325 325 325 324 323 324 324 324 323 324 325 326 327 327 327 327 326 327 326 325 325 325 326 325 325 324 324 323 323 322 322 321 319 319 318 318 317 315 316 317 315 312 314 312 313 313 313 315 317 317 317 317 317 317 318 318 318 318 317 317 317 316
305 305 306 306 306 306 306 308 310 313 314 318 322 323 323 324 325 326 326 326 326 326 326 325 326 326 325 324 324 322 323 325 325 325 325 325 326 326 327 327 327 326 326 325 325 325 325 325 324 324 324 323 321 321 321 320 320 319 318 319 318 315 316 315 315 318 315 307 310 312 312 309 309 307 308 310 313 315 315 315 316 315 316 315 314
304 305 306 307 307 306 305 306 309 311 313 315 319 321 323 323 324 325 326 326 327 326 325 327 327 325 325 325 319 324 323 320 323 323 324 324 325 326 326 327 327 327 327 326 325 325 325 325 325 324 324 324 323 322 321 321 320 320 319 318 319 318 317 315 317 316 317 313 311 311 308 304 306 310 299 308 307 309 311 312 310 313 313 312 312
304 305 306 307 307 307 306 306 306 309 311 314 316 320 322 323 324 325 325 326 327 326 325 326 323 321 322 319 317 318 318 317 316 321 322 323 324 324 326 326 326 326 327 326 325 325 325 325 325 325 324 324 323 323 322 322 322 321 320 319 319 318 318 318 313 315 315 318 316 307 306 303 306 306 303 310 302 304 304 307 308 309 310 310 310
306 305 306 307 307 307 307 306 305 306 309 312 314 317 319 321 323 324 324 325 326 327 327 325 324 324 320 320 320 320 321 320 320 322 323 322 323 325 325 326 326 326 326 326 326 324 325 325 324 324 324 324 323 323 323 323 322 321 321 320 319 319 319 318 317 312 316 316 318 319 317 311 304 299 305 308 301 307 312 312 307 307 306 307 308
304 304 305 305 306 306 306 306 306 306 307 309 310 313 315 317 320 321 323 324 325 325 325 324 324 324 324 323 324 323 322 323 324 325 325 324 324 323 324 324 325 326 325 326 326 325 325 325 325 324 324 324 323 323 323 322 323 323 322 321 321 320 318 317 318 318 313 316 317 318 318 317 313 308 310 307 309 306 302 302 305 304 304 306 310
304 305 305 305 305 305 305 306 306 307 307 306 307 309 312 314 315 317 320 321 324 325 324 324 324 324 324 324 324 324 323 324 324 325 324 322 322 322 323 323 323 325 326 325 326 325 325 325 325 324 324 324 323 323 323 324 323 323 322 322 322 321 320 319 319 320 317 316 316 316 317 318 318 317 316 312 311 308 311 314 316 317 316 314 313
304 304 304 304 304 305 305 305 306 306 306 306 306 307 308 310 313 315 316 318 321 322 323 323 324 325 325 324 323 324 325 325 325 322 321 321 321 322 321 322 322 323 325 325 325 325 324 324 324 324 324 324 322 323 323 323 323 322 322 321 322 322 322 321 320 320 320 319 317 316 317 317 317 317 317 317 312 310 310 312 314 313 310 310 310
301 302 302 302 303 303 304 305 305 305 306 307 306 306 306 306 308 310 313 316 318 320 321 322 323 323 324 323 323 324 323 323 323 323 322 320 319 320 321 321 321 321 322 323 324 325 325 324 324 324 324 324 322 323 323 323 323 322 322 322 322 321 323 321 320 321 321 321 320 319 316 315 316 315 316 315 315 314 309 311 313 312 311 313 311
300 300 301 301 302 303 304 303 304 305 305 305 306 306 307 307 306 306 308 312 314 317 318 321 322 322 323 323 323 323 323 322 322 322 322 321 320 320 320 321 320 321 321 321 322 324 324 324 324 324 324 323 322 322 322 323 323 323 323 322 322 322 322 322 320 321 321 321 320 320 318 317 316 314 314 315 314 312 311 312 313 314 313 313 314
300 300 300 301 301 302 302 302 302 302 302 303 303 304 305 305 306 306 307 307 307 310 313 317 320 321 322 323 323 323 323 323 322 322 323 322 322 322 322 321 320 320 320 320 321 322 323 323 323 324 323 324 323 324 323 323 323 323 323 322 322 323 323 322 322 321 320 320 321 321 320 320 319 318 318 317 316 314 314 312 313 314 314 315 317
299 299 300 300 300 300 300 300 300 299 300 300 300 301 302 302 302 303 304 306 307 306 307 310 313 318 320 322 322 323 323 323 323 323 323 323 322 321 320 320 320 319 319 320 321 321 322 322 322 323 323 323 324 324 324 323 323 323 322 322 322 322 323 322 322 321 321 320 320 321 321 321 320 321 320 318 318 317 316 313 314 315 312 313 316
298 298 299 299 299 299 299 299 298 298 298 298 298 298 299 300 299 299 300 302 304 306 307 306 307 310 315 319 321 321 321 322 323 323 323 323 323 322 321 321 321 321 321 320 322 322 321 321 322 322 323 323 323 323 324 324 323 323 322 322 322 323 323 323 322 322 322 322 322 321 321 321 321 321 321 320 318 317 315 313 313 313 314 313 315
297 297 297 297 297 297 297 298 297 297 297 297 297 297 297 298 297 297 298 299 300 302 304 306 307 307 308 310 314 317 319 320 321 322 322 322 322 322 321 321 320 321 321 322 321 321 321 321 321 321 322 322 322 322 322 322 322 322 322 322 322 322 322 322 322 322 322 322 322 322 321 321 322 322 321 320 320 319 317 316 314 310 311 313 312
297 296 296 296 296 296 296 296 296 296 295 296 296 296 296 296 296 296 296 297 298 299 301 303 305 306 306 307 308 310 312 314 315 317 318 319 320 320 320 320 320 320 321 320 320 318 319 320 320 320 321 321 321 321 322 321 321 321 321 321 321 322 322 321 322 322 322 322 322 322 322 321 322 322 322 321 321 321 320 319 317 314 310 307 311
295 296 295 295 295 295 295 295 295 295 295 295 295 295 294 295 295 295 296 296 296 297 298 300 301 302 304 304 305 306 307 308 311 313 315 316 316 317 317 318 317 317 319 316 317 317 318 319 319 320 320 320 320 320 320 321 321 321 320 320 320 321 321 321 322 322 322 322 322 322 322 322 322 322 322 322 321 321 321 320 319 316 315 310 309
294 294 294 294 294 294 294 295 294 294 294 294 294 295 295 294 293 294 295 295 296 296 297 298 299 300 301 302 302 303 304 306 306 308 309 309 311 312 312 313 315 315 315 316 314 314 314 313 316 317 318 319 319 320 320 320 319 320 320 320 321 321 320 321 321 322 322 322 321 322 322 321 322 322 322 322 321 321 321 320 320 319 318 313 312
293 293 294 294 293 293 293 293 294 294 294 294 294 294 294 295 295 294 294 294 295 296 296 297 297 299 300 300 300 301 301 302 303 304 304 305 306 307 307 309 309 309 309 310 310 310 311 311 311 313 314 315 316 317 318 319 318 319 319 319 319 319 320 321 321 321 322 322 321 321 322 321 322 322 322 322 322 321 321 321 320 320 318 317 315
292 292 292 292 292 292 292 292 292 293 293 293 293 294 294 294 294 295 295 295 295 296 296 296 297 297 298 299 299 298 299 300 301 301 303 303 304 304 305 305 306 306 306 306 306 307 308 307 308 309 310 311 312 313 314 315 316 317 318 318 318 318 319 319 320 321 321 321 321 321 321 321 322 322 321 321 321 321 321 321 320 320 319 319 317
291 291 291 291 291 291 291 292 292 292 293 293 294 294 294 295 295 295 294 295 295 296 296 296 296 297 297 297 298 299 299 299 298 299 299 300 301 300 301 303 301 303 301 303 303 304 305 305 305 306 306 308 308 309 311 312 312 313 315 316 316 316 317 318 318 319 319 320 320 320 321 321 322 321 321 321 321 321 321 321 320 320 319 319 317
290 290 290 290 290 290 290 290 291 291 292 292 293 293 293 293 294 294 294 294 294 295 295 295 296 296 296 296 297 298 298 297 297 297 298 298 298 299 299 298 299 301 299 300 301 301 301 303 303 304 304 305 307 307 308 308 309 310 311 313 314 314 315 315 316 316 317 318 319 319 319 320 321 320 321 320 320 320 320 320 319 319 318 318 319
288 288 288 288 288 288 288 288 288 289 290 291 291 291 291 291 291 291 292 292 293 294 294 294 295 295 295 296 297 297 296 296 295 296 296 296 297 297 296 297 297 297 297 298 298 299 300 299 301 301 303 303 305 305 306 306 307 308 309 309 311 311 312 312 313 314 314 314 315 316 317 318 320 319 319 320 320 320 320 319 319 319 318 318 318
286 286 286 287 286 286 286 286 286 287 288 289 288 288 288 288 289 289 289 290 291 292 292 293 294 294 295 295 295 295 295 295 295 295 295 295 295 295 295 295 296 296 297 297 296 296 297 297 297 298 299 300 301 302 302 303 305 306 307 308 308 309 310 311 311 312 313 313 313 314 314 315 315 316 316 317 318 319 319 318 318 318 318 318 319
284 284 285 285 285 284 285 285 285 285 286 287 287 286 285 286 286 286 287 288 289 290 290 292 293 293 293 292 292 292 292 292 293 294 294 294 294 294 294 294 295 295 296 296 296 294 296 295 298 297 298 298 299 300 301 301 302 302 304 305 306 307 307 308 309 310 307 311 311 312 313 313 312 312 313 312 313 314 316 316 317 317 317 318 318
283 283 283 283 283 283 283 283 283 283 284 285 285 284 284 284 284 285 285 286 287 288 289 290 291 291 291 290 290 289 290 290 290 291 292 292 293 293 293 294 293 293 293 294 294 294 294 295 295 296 297 298 298 298 298 299 300 300 301 302 303 304 304 305 306 307 308 308 309 310 311 311 311 311 311 312 311 311 313 314 315 316 316 316 316
282 282 282 282 282 282 282 282 282 282 282 283 284 283 282 282 282 283 284 284 285 286 287 288 289 288 288 287 287 287 288 289 289 290 291 291 291 290 290 291 290 289 290 292 293 293 293 293 295 295 295 296 297 296 297 298 299 300 301 301 301 301 302 303 304 305 306 306 307 308 309 309 310 311 311 311 312 312 314 314 314 314 315 314 314
281 281 281 281 281 281 281 281 281 281 281 282 282 282 281 281 281 282 282 282 283 284 285 286 286 285 285 285 285 286 287 287 288 289 290 290 290 290 290 290 288 289 289 289 290 292 292 292 293 293 294 295 295 295 295 296 297 298 299 299 299 300 300 301 301 302 303 304 305 306 307 308 309 310 311 311 312 313 314 313 315 314 314 314 313
280 280 280 280 280 280 280 280 280 280 280 280 281 280 280 280 280 280 281 281 282 283 283 284 283 283 283 283 284 285 285 286 286 287 287 288 288 289 289 289 289 289 290 288 289 291 290 291 291 291 291 291 293 294 295 294 296 297 298 299 299 299 299 298 299 299 299 300 302 303 304 306 306 300 300 301 303 304 314 313 313 314 313 313 313
279 279 280 280 280 280 280 280 279 279 279 279 279 279 278 278 279 279 279 280 282 282 282 282 282 282 282 283 283 284 284 285 285 285 286 286 287 287 288 288 289 289 289 289 288 288 287 289 290 291 290 292 293 295 293 293 294 295 295 296 296 296 296 296 296 296 297 297 298 300 301 296 294 294 294 295 296 296 297 303 310 312 312 312 312
278 279 279 280 280 280 280 279 279 278 278 278 279 278 278 278 278 278 279 280 281 281 281 281 281 282 282 282 283 283 284 284 284 285 285 286 286 287 287 287 288 288 288 288 288 289 289 289 289 290 290 291 292 293 291 294 294 295 294 293 294 294 295 293 293 294 295 295 295 296 298 296 295 294 296 295 295 295 296 296 296 297 300 308 310
278 278 279 279 279 279 279 278 278 278 278 278 278 278 277 277 278 277 278 280 281 281 280 280 280 281 281 281 282 283 283 283 284 284 285 285 286 286 286 286 287 287 287 288 287 288 288 288 289 289 289 290 290 290 292 293 294 294 293 293 293 293 293 293 292 292 293 293 294 295 295 298 298 299 299 300 298 296 296 295 295 296 296 296 298
278 278 279 279 279 279 278 278 278 278 277 277 278 277 276 277 277 277 278 279 280 280 279 279 280 280 280 280 281 281 282 282 283 284 285 285 286 286 286 286 285 286 286 286 287 287 287 288 288 288 288 289 289 290 292 292 293 293 294 293 293 293 292 291 291 291 292 292 292 293 294 295 298 293 293 296 297 299 296 296 296 295 295 296 298
278 278 279 279 280 279 279 278 278 277 277 278 278 277 277 277 277 277 277 278 279 278 278 278 279 279 279 279 280 280 280 281 282 283 284 285 285 285 285 286 285 285 285 286 286 286 286 287 287 287 287 288 288 289 291 292 292 292 293 293 292 293 292 291 291 291 291 291 292 292 292 293 294 294 295 297 298 299 300 301 302 303 304 301 296
277 278 279 279 279 279 278 278 277 278 278 277 277 277 277 276 276 276 277 277 278 277 277 278 278 278 278 278 278 278 279 280 281 282 283 284 285 285 285 285 284 284 284 284 284 285 285 286 286 286 286 286 287 289 290 290 291 291 291 291 291 291 290 290 290 290 291 291 291 292 292 292 293 294 295 297 298 298 299 299 299 300 301 302 303
278 278 279 279 278 278 277 277 278 277 277 277 277 277 276 275 276 275 276 277 277 276 276 277 276 277 277 277 277 277 278 278 280 281 282 283 285 285 284 284 284 284 284 284 284 284 284 284 285 285 285 285 286 288 288 289 289 290 291 289 288 288 288 288 288 289 289 289 289 290 290 291 293 294 293 294 295 296 296 295 295 296 296 298 299
279 279 279 279 278 278 277 277 277 276 276 276 276 276 275 274 274 275 275 276 276 275 275 275 275 275 275 276 276 276 277 277 279 280 281 283 284 284 284 284 284 284 284 284 284 284 284 284 284 284 284 284 284 286 287 288 288 289 288 287 287 287 287 287 288 289 289 290 291 291 292 293 294 294 293 294 295 293 295 295 295 295 295 296 297
279 279 279 278 278 277 277 276 276 276 276 276 276 275 274 273 273 274 274 274 275 274 274 274 273 274 274 275 275 275 276 277 278 280 281 283 284 284 284 284 283 283 283 283 283 283 283 283 283 283 283 282 283 284 286 286 287 287 287 286 286 286 286 287 288 289 291 291 292 289 288 292 293 293 293 294 294 293 293 294 294 294 294 294 295
279 278 278 278 278 277 276 276 275 274 275 275 274 274 273 272 272 272 273 273 273 273 273 272 272 272 273 274 274 275 276 277 278 281 282 283 284 284 284 284 283 283 283 283 282 281 282 282 283 283 283 283 283 284 285 286 286 287 286 286 286 285 285 286 287 288 289 289 290 289 288 290 291 292 293 293 294 293 293 293 294 293 293 293 295
279 279 278 278 277 276 275 275 274 274 274 274 273 273 272 271 271 272 272 272 272 272 271 270 271 272 272 273 274 275 276 278 280 281 282 282 284 284 283 283 283 283 282 282 282 282 282 282 283 283 283 284 283 283 284 286 286 287 287 286 286 285 284 284 285 285 285 286 287 287 288 290 290 289 290 290 290 290 290 291 292 291 291 292 295
278 278 279 277 276 276 275 274 274 274 274 274 273 272 271 271 271 270 270 271 271 270 269 269 270 270 271 272 273 275 277 278 279 280 281 282 282 283 283 282 282 282 282 281 282 282 282 282 283 283 283 284 284 283 284 285 286 286 287 286 285 285 285 285 285 285 285 285 285 286 287 287 288 289 289 289 289 290 290 289 290 289 290 291 292
278 278 277 276 275 274 274 274 274 273 273 273 272 271 270 270 270 269 270 271 269 268 268 268 268 268 269 270 273 275 277 277 278 279 279 279 280 282 282 282 282 281 281 281 281 281 281 282 282 283 283 283 284 284 284 285 285 285 286 286 285 285 286 285 284 284 284 285 285 285 286 287 288 288 288 289 289 290 290 289 289 290 291 291 291
277 277 277 276 274 274 273 273 273 273 273 272 271 270 270 269 269 269 270 269 268 268 267 267 267 267 268 270 272 273 275 276 277 277 277 277 279 280 280 281 281 281 280 280 280 281 281 281 281 282 283 283 283 283 284 284 284 285 285 286 286 285 286 285 284 283 283 283 285 285 285 286 286 287 288 288 289 289 289 289 290 290 290 290 290
277 276 275 275 274 273 273 273 272 272 272 271 271 269 269 268 268 270 269 268 267 267 267 266 266 267 268 269 271 272 273 274 275 276 276 276 277 278 279 279 280 280 280 279 279 280 280 279 279 280 281 282 283 283 283 283 283 283 284 285 285 285 286 284 284 283 284 284 284 284 285 286 287 287 287 288 288 288 287 289 289 289 289 288 287
276 275 275 274 273 272 272 272 271 271 271 270 270 269 267 267 268 270 268 267 267 266 265 265 266 267 267 268 270 271 272 273 273 274 273 274 275 276 276 277 279 279 279 279 278 279 279 278 279 278 279 281 282 282 281 282 282 282 283 283 284 284 284 285 283 284 284 284 285 286 286 286 286 286 287 287 287 286 287 288 288 287 286 286 287
275 275 273 271 271 271 270 269 269 269 270 270 270 269 267 268 269 269 268 267 266 265 264 265 265 266 267 268 269 270 271 272 272 272 272 273 273 274 274 275 277 277 278 278 278 278 278 278 278 278 278 279 280 281 281 281 281 281 281 282 282 283 283 284 284 284 284 285 285 285 286 285 285 285 284 284 283 284 286 286 286 285 285 286 286
274 273 270 270 270 269 268 267 267 268 270 270 270 269 269 269 269 268 267 265 264 264 264 264 264 265 266 267 268 269 270 270 270 271 271 271 272 272 273 273 275 275 276 276 276 277 277 277 276 276 277 278 278 279 279 279 280 280 280 280 280 281 282 283 284 283 282 282 283 283 283 284 284 285 285 284 284 284 284 283 283 284 284 285 285
273 272 269 269 268 267 266 266 266 268 269 269 268 267 268 268 268 266 265 264 263 263 263 263 263 264 266 267 267 269 269 269 269 270 269 269 270 271 271 271 272 274 274 275 275 276 276 275 275 275 275 275 276 276 277 277 277 278 278 278 279 280 280 282 282 281 281 282 282 282 282 281 281 282 282 281 281 282 283 283 282 282 282 283 284
271 270 269 268 267 266 266 265 266 267 268 267 266 266 267 267 266 264 263 262 262 262 263 262 263 264 265 266 266 267 268 268 268 269 269 270 269 270 271 272 274 275 276 275 276 275 275 275 275 274 274 273 274 274 276 279 278 279 277 277 277 278 280 281 281 282 281 280 278 278 278 279 279 279 280 280 281 282 282 282 282 281 281 282 283
270 268 267 266 266 265 265 264 264 266 267 266 265 265 266 266 265 264 263 261 261 261 261 261 262 263 264 264 265 266 266 267 267 267 268 268 271 273 273 272 272 275 277 278 278 275 275 274 274 275 275 273 273 275 278 278 278 278 278 279 279 280 281 280 280 281 280 275 276 276 276 276 276 277 277 278 279 279 280 280 280 281 281 280 281
269 266 265 265 264 264 263 263 263 264 265 265 264 264 264 264 264 263 262 261 261 260 260 260 261 262 263 264 264 264 265 266 266 266 267 267 267 269 272 274 274 275 276 277 277 276 276 276 275 273 274 276 277 277 277 277 277 277 277 278 278 279 279 278 278 276 272 273 273 273 273 273 274 274 274 275 276 276 277 277 277 277 277 278 278
Wind_Speed
6 5 5 6 7 10 8 6 5 5 6 8 8 10 11 11 8 12 10 8 8 8 8 8 9 8 7 10 13 9 8 8 9 8 8 8 7 8 8 8 8 8 9 9 10 10 10 9 9 8 7 8 9 10 8 9 8 8 7 6 8 9 8 5 4 4 6 11 8 10 11 9 11 11 14 12 11 10 8 9 10 9 10 9 8
4 6 6 5 6 6 6 6 5 5 8 6 9 11 8 6 9 13 5 7 10 11 9 8 10 11 10 11 10 8 8 9 10 8 9 8 9 9 8 8 10 10 10 11 11 11 11 10 10 9 8 8 9 9 8 7 7 7 5 7 5 8 9 5 5 5 4 6 9 10 11 9 10 12 11 10 10 9 8 9 9 8 10 7 5
8 6 6 6 6 5 4 5 5 7 6 6 9 7 7 8 9 10 7 8 10 10 9 11 11 9 9 7 7 6 6 7 7 6 6 9 9 10 9 10 10 10 11 11 10 10 10 9 9 8 9 8 8 9 9 10 8 9 8 9 6 5 8 4 6 9 7 2 2 4 10 10 5 2 4 6 7 8 7 9 9 8 9 6 6
11 11 10 7 7 7 5 5 5 3 5 5 6 8 7 8 9 10 10 9 9 9 11 13 9 5 7 6 4 6 6 5 6 6 8 8 11 9 9 11 12 12 11 10 9 10 9 10 8 8 9 8 9 9 9 11 9 9 8 8 8 10 7 6 8 9 8 4 4 6 3 1 10 9 4 7 6 7 5 7 4 7 6 5 4
11 12 12 9 6 6 5 4 2 4 5 6 6 6 6 8 10 9 8 8 8 7 10 9 3 4 4 2 2 1 1 2 3 7 9 9 8 8 14 11 10 11 10 10 10 10 9 9 9 9 9 9 9 10 10 11 9 8 9 9 10 11 11 7 5 9 10 9 8 1 3 2 7 7 8 9 1 2 4 5 5 5 5 5 5
9 12 13 11 10 8 6 3 4 4 6 6 4 5 5 7 6 6 6 6 8 9 9 6 8 8 6 6 7 8 9 7 10 14 11 10 13 10 6 7 9 9 9 9 9 9 9 10 9 9 10 9 9 10 9 8 9 10 11 10 10 11 11 8 8 5 9 10 12 11 8 8 5 3 5 11 1 5 11 9 6 4 3 4 4
6 7 10 11 11 8 9 8 5 4 5 5 5 5 6 7 7 6 6 6 7 7 5 6 7 8 10 11 11 10 11 10 10 10 9 7 6 7 8 5 7 9 8 8 9 10 9 9 10 10 10 9 9 8 10 11 10 10 8 9 11 9 8 11 12 8 4 8 10 11 12 10 7 5 9 6 16 2 5 1 2 2 3 4 8
7 7 7 6 6 8 10 9 7 7 6 5 5 5 6 7 7 8 6 7 6 6 6 8 9 9 10 11 11 11 11 13 11 10 6 4 6 8 6 7 7 8 9 9 9 10 9 9 9 9 9 10 9 10 11 10 9 8 9 10 9 9 10 11 12 9 9 6 8 10 11 11 10 11 10 11 12 16 18 4 9 11 10 9 9
5 7 9 10 10 11 10 11 9 9 9 8 7 6 6 6 7 6 7 7 7 7 7 7 9 10 10 9 10 10 11 11 9 5 5 5 6 7 6 6 6 7 8 8 8 9 9 10 9 9 10 10 10 10 10 11 11 10 9 9 10 10 10 11 10 10 9 10 6 7 9 9 9 9 10 9 11 12 19 14 17 4 6 6 7
6 4 5 7 8 9 9 8 12 10 9 7 7 6 6 6 6 6 8 7 7 6 6 7 9 9 9 10 12 11 9 9 7 7 6 4 6 6 6 6 6 6 6 7 8 9 9 9 10 11 12 11 9 10 11 10 10 11 12 11 10 11 9 10 11 10 10 9 9 7 7 5 7 7 8 9 11 12 15 17 13 17 17 8 5
7 7 7 7 6 8 9 11 10 12 10 10 10 10 8 7 6 5 7 7 6 7 6 7 7 8 9 10 11 12 11 9 8 9 8 7 7 7 7 7 6 7 7 8 9 9 10 10 10 11 10 9 9 10 11 11 11 11 10 10 10 12 10 11 11 11 10 10 10 9 10 10 10 10 9 8 9 9 10 13 11 13 14 18 5
8 9 10 9 11 11 11 13 12 11 12 13 11 11 11 10 10 11 11 9 8 7 6 7 6 7 8 10 11 11 11 9 10 11 10 10 9 9 8 6 6 7 6 7 8 9 9 9 10 10 9 9 11 10 10 10 10 9 8 9 9 11 11 11 11 11 12 11 12 10 11 10 10 11 10 9 9 11 10 14 11 10 13 12 11
10 9 9 10 10 10 12 12 12 12 11 12 12 11 11 11 11 12 12 11 10 8 7 7 5 6 7 8 8 8 9 10 10 10 9 9 8 7 6 7 6 6 7 8 9 10 9 8 9 9 9 10 11 10 10 10 9 9 9 10 10 10 11 12 11 12 12 11 11 11 10 10 11 10 10 10 10 10 11 13 12 8 14 13 11
7 7 8 9 9 8 8 10 11 11 12 12 11 11 10 10 11 11 12 9 9 9 8 7 6 6 5 6 7 6 7 7 7 8 8 7 7 7 7 8 7 8 8 9 8 8 7 9 9 9 10 9 10 10 10 10 10 10 10 10 11 11 10 12 12 13 12 13 11 10 11 11 11 10 11 10 11 10 11 12 13 9 10 13 9
6 7 8 8 9 8 9 9 9 10 12 12 11 11 10 11 11 11 13 12 10 9 8 9 7 6 5 5 5 5 6 6 7 7 7 8 7 7 7 6 7 8 7 7 6 7 7 7 8 9 8 9 8 8 9 9 9 9 9 10 9 8 10 10 10 12 12 12 13 12 11 11 10 10 10 11 11 11 12 11 10 13 13 11 11
9 9 9 9 8 8 10 10 10 9 10 10 12 11 11 11 11 11 9 9 9 9 9 7 8 7 5 5 5 4 5 5 6 6 6 6 7 6 7 6 6 6 6 5 5 4 5 6 7 8 8 8 8 9 9 8 8 9 9 8 10 8 10 12 11 11 13 14 14 13 11 12 10 10 10 11 10 11 10 10 9 10 11 16 12
10 9 9 10 12 12 9 9 10 11 12 12 11 10 10 11 11 13 14 12 11 10 8 8 7 6 7 7 6 5 4 5 6 7 7 6 5 6 6 6 4 4 6 4 5 5 6 6 7 7 8 8 7 8 8 8 8 8 8 9 10 9 10 11 10 11 11 11 11 13 12 11 11 10 11 10 10 10 10 10 10 11 10 11 14
7 6 5 7 9 11 12 10 10 11 11 11 13 11 9 8 8 11 13 14 15 13 11 10 10 9 7 6 5 5 5 5 5 6 6 6 6 5 5 5 6 5 4 5 4 4 4 5 5 6 6 6 7 7 7 7 7 7 8 8 9 8 9 9 9 10 11 10 11 11 11 11 10 10 11 11 10 11 11 11 11 11 10 12 12
13 12 11 12 12 13 13 13 13 12 11 10 11 11 12 13 12 9 12 12 10 9 9 8 7 7 6 7 6 5 4 4 4 4 4 4 6 5 4 5 5 5 5 5 4 4 4 4 4 5 5 6 5 6 6 6 6 7 7 8 8 8 9 10 9 9 10 9 11 12 11 11 10 10 11 10 10 10 10 10 10 10 10 12 12
10 10 10 11 11 12 13 14 15 16 15 15 14 13 15 14 15 16 16 15 14 14 12 12 11 9 11 9 6 4 4 4 4 4 4 3 4 4 5 5 5 5 4 4 5 5 4 4 4 4 5 5 5 5 5 6 6 6 7 7 7 7 9 10 10 9 8 9 11 12 12 11 10 9 11 10 10 10 10 11 11 11 12 11 11
9 10 11 13 13 14 15 15 14 14 14 15 16 16 15 15 16 17 17 18 19 18 16 14 13 12 11 11 11 9 8 5 5 4 3 3 3 3 3 3 3 4 3 4 4 4 4 4 4 4 4 4 4 4 4 5 5 6 6 7 7 7 9 9 9 10 9 9 11 11 12 12 10 11 10 9 10 10 10 10 10 11 11 11 11
12 13 14 14 15 16 15 15 14 15 15 17 16 16 17 18 16 15 16 15 16 17 16 17 14 13 12 12 12 9 7 6 5 4 4 4 3 3 3 3 3 4 2 3 4 4 4 4 4 4 4 4 4 5 4 4 5 5 6 6 6 7 8 9 8 10 9 8 9 11 12 11 9 11 11 10 10 10 10 10 10 10 10 11 10
14 13 13 13 13 14 14 16 17 17 16 17 16 16 16 16 17 15 15 16 15 14 14 14 14 15 15 13 11 11 11 10 9 5 4 4 4 4 4 4 4 3 2 2 3 3 3 3 4 4 4 4 5 5 5 4 5 5 7 6 6 6 7 8 8 9 9 7 9 10 11 10 7 10 11 10 9 10 10 11 12 10 11 12 10
12 12 12 11 11 12 14 16 16 17 16 16 15 16 17 15 15 15 16 17 16 14 14 14 14 15 14 14 13 13 14 13 12 11 10 7 5 4 4 4 4 5 6 4 3 3 3 3 3 4 4 4 4 5 5 4 5 5 6 7 6 6 6 7 8 9 8 7 9 9 10 8 8 10 11 9 9 9 9 9 10 10 10 12 12
14 13 13 14 15 16 15 14 14 15 15 15 15 15 15 16 16 16 15 15 14 13 14 14 13 15 13 13 14 13 13 14 14 12 13 12 8 6 4 4 6 7 6 7 6 4 5 4 4 4 4 4 4 4 4 5 5 5 6 6 6 6 7 7 8 8 8 8 9 9 10 7 7 9 10 8 8 10 9 9 10 10 10 11 10
12 13 14 15 13 13 14 15 14 14 14 15 14 14 14 15 16 14 15 16 15 13 14 13 13 13 13 14 14 13 14 13 13 12 12 12 12 9 7 4 4 4 5 4 6 6 5 6 5 5 5 5 4 4 4 5 5 5 5 5 6 7 7 8 8 8 8 8 9 10 9 8 8 10 11 9 8 9 9 9 11 11 10 10 11
13 12 12 12 14 15 14 14 12 13 14 14 14 14 15 15 16 16 15 15 14 13 14 12 12 11 12 13 14 14 12 12 12 12 10 10 11 10 10 8 6 3 3 4 4 4 4 4 6 5 6 6 5 4 3 4 5 5 5 6 6 7 7 7 7 8 8 8 8 9 9 8 9 9 10 10 9 9 9 10 10 10 9 9 10
11 13 14 15 15 15 14 13 13 14 13 13 13 12 13 12 14 14 14 14 13 14 14 13 12 11 11 12 12 12 12 12 11 11 11 11 11 11 11 10 7 5 4 3 4 4 4 3 4 4 5 5 5 4 4 4 4 4 5 6 6 7 8 8 7 8 8 8 8 8 8 9 9 9 10 10 9 10 9 10 10 9 9 10 10
13 13 11 11 13 13 15 16 15 15 15 14 12 12 12 13 13 14 13 14 13 13 13 13 13 12 12 11 11 10 9 12 12 12 12 12 12 11 11 10 9 9 6 4 3 4 5 5 4 4 4 4 4 5 4 4 4 4 4 6 6 7 8 8 9 8 8 7 8 8 8 8 9 13 15 14 13 11 9 10 10 9 9 10 11
11 12 12 11 11 11 11 13 14 16 18 18 15 13 12 12 13 13 14 15 14 14 13 14 13 13 12 12 11 10 10 10 10 12 11 12 11 11 11 11 11 10 8 7 6 4 4 5 7 6 4 4 3 4 5 8 7 6 6 6 6 7 7 7 8 9 9 7 7 7 8 13 14 15 15 16 16 16 15 13 12 11 10 10 10
10 11 12 12 12 12 12 13 13 12 13 13 14 15 14 13 11 12 12 12 13 14 14 13 13 13 12 13 12 11 11 11 11 10 10 11 12 11 11 11 11 10 10 10 9 8 6 5 6 7 8 5 3 4 8 10 10 11 8 6 7 7 6 6 7 8 9 9 7 7 7 9 10 12 11 14 15 16 16 17 18 18 15 14 12
10 10 10 11 13 14 14 14 14 13 13 12 12 12 12 14 14 13 13 11 11 11 11 12 13 13 12 12 12 12 12 12 11 12 12 12 11 11 11 12 12 13 12 10 10 9 8 7 7 7 7 6 3 5 10 11 12 12 10 8 7 7 7 6 6 7 8 8 8 8 7 7 7 8 8 8 9 11 13 15 16 17 18 19 18
10 12 11 10 10 11 12 13 12 12 13 13 12 12 12 11 12 13 13 12 12 10 11 11 11 11 12 12 13 13 13 12 12 11 11 11 11 11 11 12 13 11 11 11 11 10 10 8 8 9 9 6 5 7 10 11 11 12 12 11 7 7 7 8 7 7 8 8 8 8 9 8 8 11 8 6 7 9 12 14 16 17 18 19 18
9 8 9 10 10 9 9 9 10 11 10 11 10 11 12 10 10 11 10 11 11 11 10 11 11 11 12 11 11 11 12 12 12 12 11 11 10 10 10 9 10 10 11 12 11 12 10 10 9 9 9 7 6 8 12 13 13 14 13 11 8 8 7 8 8 8 8 8 8 7 8 10 8 6 6 6 7 9 9 9 10 10 10 12 14
9 9 8 8 9 10 10 11 11 11 11 12 12 10 11 12 11 12 11 11 10 10 10 11 11 11 11 11 11 10 11 11 12 12 12 11 9 9 10 9 9 9 10 11 11 12 11 10 10 10 10 9 6 12 13 14 15 16 16 12 7 7 7 8 7 7 8 8 8 7 7 9 10 8 5 6 7 8 8 8 9 10 9 10 12
10 9 10 8 8 9 9 10 8 9 11 10 11 11 12 13 12 11 12 11 10 10 10 9 10 12 13 13 12 11 11 11 10 11 11 11 10 9 10 9 9 8 7 7 8 8 9 10 10 10 9 8 7 12 14 15 16 16 17 8 7 7 8 8 8 6 6 6 6 6 7 9 10 10 7 8 8 9 10 11 13 12 12 12 13
11 9 10 7 5 7 8 6 7 9 10 11 10 10 12 14 13 12 11 11 11 10 10 10 11 12 12 12 12 13 12 11 11 11 11 11 10 10 9 7 9 8 9 8 8 8 8 9 10 9 9 8 7 10 14 15 15 17 12 6 7 7 7 8 8 7 6 7 6 6 7 9 10 9 9 10 11 12 10 11 12 12 11 11 12
12 10 8 6 6 5 5 5 7 8 8 8 8 9 11 12 13 13 13 12 11 11 10 10 12 12 12 12 12 12 13 13 12 12 11 11 10 8 9 8 9 11 10 8 8 8 8 7 8 10 9 11 8 10 15 15 15 15 12 8 7 7 8 7 8 8 6 6 6 8 8 8 9 10 11 13 13 12 11 10 11 11 13 13 14
13 12 12 10 8 6 6 6 6 8 8 6 8 10 9 11 12 12 12 12 12 10 10 12 14 14 13 12 11 12 12 12 12 11 11 12 10 8 8 8 8 8 9 9 8 9 9 7 6 8 9 9 8 8 13 14 15 14 10 5 6 8 8 7 7 9 7 6 7 5 8 9 9 11 15 14 14 12 10 10 10 11 12 13 12
13 11 10 9 8 8 9 9 9 9 7 7 7 8 9 10 11 11 11 12 11 10 12 13 14 13 12 12 12 12 12 11 12 11 11 10 9 7 7 8 7 7 8 8 8 8 10 9 7 7 7 7 7 7 9 16 15 14 14 8 5 7 9 10 8 8 10 9 5 6 5 9 16 19 19 20 18 17 13 11 11 12 13 16 11
13 11 8 8 8 9 10 11 9 7 7 8 8 9 9 9 10 11 11 11 9 10 13 13 12 13 13 13 12 12 13 12 12 11 10 10 9 8 7 7 7 7 6 7 8 8 8 8 7 7 7 6 6 7 7 13 15 15 16 12 6 6 7 8 9 9 8 10 10 8 7 11 16 18 19 19 19 18 15 12 12 12 12 14 17
9 8 7 6 7 9 11 11 9 7 8 8 8 9 10 9 9 10 11 9 8 10 11 12 13 13 14 13 13 13 11 11 11 10 10 10 9 9 7 7 6 7 8 8 7 7 7 6 5 5 5 6 6 7 6 9 13 16 15 15 8 6 8 8 9 8 8 8 8 9 8 10 16 18 19 19 20 18 18 11 12 17 20 21 17
11 9 7 7 8 10 11 12 10 8 7 8 9 11 10 9 10 11 10 8 9 11 12 12 12 13 13 13 13 14 13 11 10 11 11 12 10 9 8 8 8 8 8 8 7 7 7 6 5 4 4 4 5 5 8 6 10 15 15 15 15 10 13 8 8 10 9 9 7 8 9 12 16 18 19 19 18 19 14 10 17 18 18 19 16
7 6 7 7 9 8 10 11 10 8 8 7 8 10 9 11 13 11 6 7 9 11 12 12 12 11 12 12 12 13 12 11 11 11 10 11 10 9 8 7 7 8 7 7 6 6 7 6 6 6 5 4 5 5 6 9 9 15 16 17 17 17 15 9 8 7 8 8 8 8 9 15 17 18 18 18 17 16 11 16 17 17 16 14 9
12 12 10 8 9 10 11 12 11 10 9 8 6 8 9 11 11 9 9 11 13 12 12 12 12 12 12 11 11 11 11 11 10 10 11 10 11 10 9 7 7 6 6 7 7 6 6 6 6 6 6 5 5 5 5 8 14 14 16 17 17 18 16 17 10 7 7 8 11 18 17 16 16 16 16 16 12 12 14 13 15 15 12 6 6
12 10 7 6 8 9 10 11 12 9 9 6 6 7 10 12 12 10 10 10 11 12 12 12 12 12 12 12 12 11 10 10 11 9 9 9 10 10 9 9 7 6 6 6 6 6 6 6 7 7 7 7 5 5 5 7 8 10 11 16 19 18 16 16 14 10 13 18 19 17 17 16 12 11 9 7 7 8 12 13 12 11 6 6 5
14 10 6 8 8 11 10 10 11 10 9 7 5 8 9 11 11 9 9 10 11 11 11 11 12 12 12 11 12 10 10 10 10 9 9 8 9 9 9 9 8 7 7 7 8 7 6 6 6 7 6 6 6 5 6 6 7 7 8 10 11 12 15 14 9 7 9 10 12 11 10 13 11 13 12 10 9 9 7 6 4 5 5 5 6
11 6 7 7 9 9 11 11 11 11 9 7 7 8 9 10 8 6 8 10 11 10 11 12 13 12 10 11 10 13 12 9 9 9 9 9 8 8 8 9 8 9 8 8 9 8 7 7 7 7 7 6 6 5 6 8 9 8 9 9 9 10 10 9 9 9 10 11 10 9 10 7 7 7 7 5 5 5 6 6 5 5 5 6 6
10 8 8 9 8 10 10 10 12 11 8 6 8 9 9 10 7 6 8 11 11 11 11 12 11 10 10 10 10 10 10 10 10 8 8 8 9 9 9 10 9 6 7 8 8 7 7 7 7 7 7 6 7 7 7 12 13 16 13 11 10 9 9 8 10 16 12 8 6 6 6 7 7 8 8 7 7 7 7 8 7 6 5 5 5
7 7 6 8 8 8 11 11 11 11 9 6 7 8 9 9 7 7 9 10 11 11 11 10 9 9 10 10 10 10 9 9 9 10 10 9 10 12 11 10 10 13 15 16 11 7 9 8 8 6 6 7 7 8 15 18 18 19 20 20 18 17 14 12 14 17 9 4 5 5 5 6 6 6 7 7 8 7 7 7 7 7 6 5 6
8 8 8 9 9 9 9 10 10 10 9 7 6 7 7 8 7 7 9 10 10 10 9 9 9 8 10 11 10 10 10 9 9 9 9 10 10 9 10 14 14 14 14 14 11 15 17 17 11 7 8 14 15 16 17 17 17 18 20 20 19 14 14 14 14 8 4 5 5 5 6 6 6 6 6 7 7 7 7 7 7 6 5 6 7
Wind_Direction
262 272 258 245 262 276 283 280 269 253 234 219 218 222 219 218 209 227 221 200 204 207 205 201 205 214 220 219 226 219 219 219 225 222 224 227 221 220 218 219 217 216 213 212 220 222 226 228 228 226 216 216 225 234 230 232 221 220 231 217 235 252 255 216 225 206 272 285 267 265 276 254 253 248 250 249 248 252 249 254 255 255 253 253 253
275 287 275 260 252 251 262 270 257 256 247 223 227 230 227 216 216 234 209 203 211 210 208 205 210 208 202 215 218 213 210 210 224 215 220 221 219 217 214 212 213 214 211 211 216 215 220 222 224 225 212 222 227 234 233 231 223 215 208 241 205 232 255 179 195 131 240 247 305 310 294 283 235 243 245 253 248 250 249 250 255 253 259 259 262
295 265 255 270 268 267 257 258 249 231 251 220 232 238 227 218 226 234 212 208 215 212 204 214 218 215 205 219 196 219 220 219 224 219 212 221 221 218 216 216 215 218 215 213 217 219 223 222 226 218 220 218 226 232 229 233 222 221 209 225 239 216 244 198 181 182 246 149 204 329 300 332 334 295 292 276 264 252 247 245 247 252 265 265 256
286 291 289 273 271 275 273 267 261 267 264 257 239 230 229 224 229 229 222 216 219 211 213 223 220 208 217 218 191 197 210 206 218 218 221 222 228 216 220 220 216 222 217 215 219 220 217 223 224 217 223 214 223 233 229 234 222 223 216 220 220 254 230 235 188 196 206 133 280 214 262 68 312 296 331 284 219 244 242 258 255 258 258 263 251
279 290 291 286 276 272 273 278 285 261 263 259 247 238 234 234 233 233 232 222 226 218 217 226 198 200 204 187 151 225 323 206 210 240 224 223 232 216 226 217 220 224 220 217 218 222 218 221 219 222 221 218 217 229 232 231 226 221 214 216 211 225 251 241 217 199 204 200 198 234 299 285 232 288 344 282 109 290 248 229 248 251 256 261 256
255 268 278 293 303 307 304 287 286 293 295 287 303 295 284 272 265 256 246 237 232 228 219 198 199 201 178 187 209 216 226 204 216 226 221 213 220 230 243 217 218 225 223 220 219 219 220 219 219 221 223 221 217 227 235 237 230 221 215 215 222 218 233 249 247 201 209 203 218 225 215 243 274 258 25 297 349 230 272 259 257 245 252 262 261
243 250 271 287 294 315 323 344 357 329 288 282 285 273 266 265 266 258 250 247 244 245 222 197 206 209 207 210 216 217 222 233 231 237 233 225 222 234 232 219 217 220 225 219 220 219 220 219 219 221 225 224 222 225 233 232 231 227 220 211 223 220 210 238 245 237 173 222 222 229 240 248 253 278 267 309 301 310 188 323 313 210 212 252 274
273 275 279 289 330 353 342 338 350 337 319 316 304 292 279 273 270 267 261 254 246 239 218 199 208 214 217 221 222 225 223 236 231 236 240 218 211 229 226 220 214 215 221 217 219 219 219 223 221 222 224 227 220 222 230 233 233 232 219 218 221 216 213 222 241 236 223 232 203 225 235 243 246 247 246 254 271 289 287 253 248 271 272 256 257
284 321 338 349 357 352 353 347 343 350 349 340 330 313 299 294 289 286 278 265 258 241 231 209 210 214 218 223 228 230 233 238 246 234 231 214 226 233 229 223 216 216 218 219 219 220 218 223 221 222 224 227 219 227 231 231 230 231 223 216 218 222 217 225 232 239 229 239 217 222 228 235 237 235 242 235 244 274 276 283 290 230 236 251 269
10 7 2 3 360 356 352 357 7 1 356 351 349 343 334 316 304 297 284 271 265 261 238 229 214 216 222 220 226 236 235 246 250 253 249 226 232 238 239 230 224 222 220 222 221 219 221 220 222 223 225 227 222 226 232 233 233 231 229 224 221 225 223 222 226 233 237 240 228 233 226 230 236 235 228 230 241 232 262 280 285 298 296 272 202
3 12 21 17 8 16 9 20 4 5 0 5 4 0 356 359 336 314 292 293 291 281 269 247 228 219 225 226 227 233 236 232 236 244 243 239 234 237 233 230 215 215 211 217 217 218 220 219 221 225 226 226 225 226 228 228 231 231 232 229 226 225 226 227 227 230 235 238 234 229 232 228 230 235 230 229 235 246 263 264 269 273 277 292 253
18 29 30 31 30 22 19 17 8 360 3 3 360 356 357 356 2 354 344 335 319 305 296 274 253 235 228 229 230 230 232 232 230 240 237 239 233 237 238 229 226 221 214 216 220 218 220 221 223 227 227 225 227 226 229 229 232 232 231 227 228 226 229 230 231 230 226 234 235 233 235 232 236 237 243 241 238 250 251 267 267 278 278 266 287
47 41 36 32 31 20 16 10 6 3 359 356 356 354 352 351 358 357 346 345 337 324 310 295 277 257 246 248 248 243 240 240 241 243 244 242 239 240 239 239 231 230 220 222 225 219 216 220 222 223 227 226 229 227 230 229 229 228 230 229 228 227 226 225 230 230 227 228 233 233 237 234 236 235 240 240 246 254 255 266 265 251 267 280 280
48 45 39 33 23 18 13 7 3 357 355 353 352 353 348 346 349 354 339 345 343 344 335 319 301 287 280 266 254 249 253 254 254 255 258 255 247 240 235 236 236 231 230 225 227 223 216 220 223 226 227 229 227 228 229 228 226 226 226 228 228 230 228 228 232 233 232 234 233 239 234 235 236 232 234 235 241 243 247 250 270 260 251 270 269
34 40 37 28 19 15 10 2 358 353 351 350 349 349 347 345 348 346 340 341 346 344 345 344 329 315 300 288 280 281 271 262 254 250 259 262 261 260 256 249 243 244 234 239 227 223 223 222 225 231 232 233 233 232 232 234 231 231 231 232 235 232 232 232 234 233 237 234 234 234 240 238 236 234 230 236 235 235 242 249 253 273 273 260 270
20 19 19 20 19 11 5 360 355 352 348 345 348 348 346 341 335 335 332 329 335 345 348 342 335 329 325 315 302 299 287 280 276 267 263 261 269 260 259 251 249 255 261 255 254 239 236 233 229 231 233 234 232 232 233 231 230 231 233 230 237 228 235 233 234 234 237 236 237 238 239 242 239 237 234 238 234 237 240 245 244 254 268 283 275
16 15 8 5 5 5 5 355 352 350 350 347 341 341 337 335 338 335 335 334 341 346 339 337 337 343 340 337 332 326 316 298 288 289 283 283 272 265 259 264 272 265 261 257 252 236 233 230 235 236 236 236 237 234 232 233 231 230 232 233 236 233 233 237 235 236 238 236 239 238 238 243 238 237 240 237 238 237 238 239 236 240 250 255 278
16 18 11 5 0 357 354 353 353 348 344 343 342 339 337 335 339 336 335 339 336 340 340 341 340 342 341 341 330 317 311 301 295 291 299 302 291 286 289 282 266 264 260 264 260 258 252 241 240 247 244 243 241 242 239 238 235 236 235 235 237 236 239 240 236 238 240 238 242 240 239 243 240 238 241 236 236 236 237 236 235 235 231 243 257
9 4 1 1 359 355 352 349 345 346 345 345 344 344 344 349 347 345 339 333 328 328 331 332 344 336 328 327 321 317 301 291 290 288 296 295 294 296 290 286 306 306 296 285 284 275 266 265 250 254 256 253 252 251 247 248 238 244 241 243 242 237 241 244 240 236 242 240 242 244 242 245 245 241 242 240 238 237 238 238 238 237 232 235 246
359 358 356 354 354 355 355 352 350 349 349 349 352 355 358 356 355 353 348 347 345 346 345 342 341 340 332 329 327 318 309 303 293 294 300 299 297 309 309 316 304 310 300 304 297 289 285 280 266 254 259 257 254 253 247 247 244 242 244 244 245 236 242 245 247 240 243 241 244 247 245 245 247 244 246 242 241 238 236 237 236 234 236 233 236
2 360 358 360 1 2 4 3 360 359 0 360 1 1 0 2 4 2 0 354 352 350 348 343 337 336 335 330 324 327 326 327 322 301 284 281 291 293 292 278 304 293 292 288 283 282 289 284 284 278 268 267 260 258 249 245 244 248 243 244 247 238 243 245 245 248 242 242 244 248 247 245 244 245 247 245 241 240 237 237 236 236 239 235 232
16 16 15 12 11 8 6 3 3 3 2 2 1 2 2 0 357 358 359 1 353 352 349 343 341 337 335 328 324 323 324 328 332 322 308 307 294 290 285 297 285 283 291 283 282 280 282 286 283 284 282 277 276 272 264 247 248 247 251 240 243 240 243 247 240 249 244 237 244 245 250 249 243 247 251 248 245 244 239 240 239 235 238 241 223
20 19 15 14 11 8 5 4 4 2 359 359 0 1 357 353 354 354 354 353 352 346 346 344 344 345 342 341 338 341 339 340 339 334 336 336 333 324 323 313 302 294 280 258 272 283 286 287 285 279 283 281 277 280 282 277 268 264 267 265 251 247 249 253 250 249 249 240 243 245 250 250 246 249 249 246 245 246 244 242 244 236 239 240 235
17 16 15 9 9 4 6 6 3 1 357 359 357 355 354 354 353 349 350 347 347 348 345 344 344 347 348 352 357 352 349 349 347 339 335 338 340 344 341 340 332 328 332 326 320 307 303 291 282 282 275 278 281 279 284 274 266 264 265 268 269 262 258 259 261 262 262 254 250 256 253 247 244 250 252 249 245 245 242 244 246 244 241 246 240
11 10 6 6 8 8 5 1 358 357 355 353 354 354 354 350 349 347 345 343 342 344 344 345 346 347 352 355 353 353 351 348 345 340 335 331 336 341 357 360 353 351 346 340 340 344 329 323 308 293 290 284 276 280 285 285 278 273 272 274 273 271 267 265 263 264 266 263 264 260 265 260 253 257 259 253 247 248 248 247 249 248 246 246 248
10 8 8 6 2 2 4 360 356 355 350 348 347 350 349 347 346 345 343 342 342 344 342 341 348 349 349 352 350 349 346 342 340 338 335 332 329 337 342 350 7 351 344 346 339 341 336 324 319 307 299 291 290 288 285 285 286 285 280 274 275 273 272 271 270 267 264 262 263 265 265 263 257 255 261 260 251 253 253 249 250 252 248 248 250
7 6 2 2 5 2 356 356 355 351 350 346 345 342 343 343 343 344 344 340 339 341 338 341 346 347 345 347 345 343 339 336 336 332 331 332 334 330 332 337 337 334 343 338 340 335 328 322 309 309 304 301 302 304 293 287 287 289 286 285 282 279 275 273 271 269 266 263 261 262 264 261 257 256 259 260 259 258 258 257 254 254 253 250 252
8 7 5 359 353 352 354 352 350 349 345 344 343 342 340 340 337 338 340 339 338 339 337 340 344 342 345 341 340 335 336 336 331 332 335 335 334 333 332 325 322 331 340 336 331 325 310 304 294 291 289 294 294 298 290 280 278 275 280 279 277 279 279 277 274 271 269 267 265 263 263 260 256 256 257 259 257 259 256 260 257 255 253 253 252
1 359 360 358 353 348 345 346 344 344 345 343 340 339 340 338 336 336 335 338 336 336 336 338 339 341 340 336 331 332 332 333 333 334 337 338 336 332 329 327 324 326 328 325 320 320 316 313 296 280 286 283 283 279 268 268 270 274 264 273 277 277 278 281 279 275 270 267 266 263 262 262 257 258 258 258 259 258 261 265 261 255 254 257 258
358 350 348 348 346 345 343 341 343 343 341 340 339 338 337 334 332 333 334 333 337 335 337 337 337 335 334 332 330 329 330 331 333 335 334 333 333 332 331 329 329 327 326 331 333 325 316 315 318 315 306 304 297 277 273 276 277 273 272 266 266 262 262 265 272 278 276 266 263 265 265 264 266 265 265 267 266 265 259 254 265 269 264 260 260
351 351 346 342 340 339 339 340 339 340 335 333 329 331 330 329 329 331 331 330 332 331 333 335 332 332 331 330 330 331 331 333 332 330 329 330 331 331 330 328 329 330 330 332 330 327 329 322 314 312 314 321 328 308 298 296 290 280 275 273 268 271 260 258 262 265 273 277 270 264 266 270 271 271 270 265 263 264 263 259 257 256 254 254 267
346 345 343 342 339 337 337 334 333 332 331 329 327 323 324 324 326 328 326 324 323 323 325 325 327 327 330 330 328 328 330 329 330 330 329 328 327 331 332 331 331 333 332 329 329 327 326 326 320 314 308 313 319 296 299 301 297 291 284 277 273 271 271 265 260 262 266 271 275 273 267 264 262 260 268 275 275 275 270 265 261 258 257 251 244
343 342 338 335 332 329 326 325 325 328 327 324 323 321 317 316 318 317 320 319 318 321 320 320 321 324 325 328 329 329 327 326 326 324 322 323 326 328 332 333 330 327 325 328 326 327 324 322 317 313 311 316 318 306 306 304 301 297 293 288 278 270 271 272 268 265 268 271 273 278 283 276 271 272 270 270 280 283 278 274 268 261 257 254 252
340 330 324 321 323 322 320 318 315 314 315 313 315 312 308 311 311 310 310 310 313 318 320 318 319 324 323 323 323 322 319 321 321 320 318 318 321 325 324 322 319 325 326 323 324 323 322 321 317 311 308 317 321 315 317 318 315 309 306 302 285 284 276 271 271 270 270 272 270 274 283 286 284 280 277 284 283 282 287 291 288 282 280 269 256
323 319 315 311 310 314 315 318 321 322 322 323 320 319 316 317 320 316 314 311 310 311 316 316 319 321 321 320 318 316 314 314 318 318 316 314 314 316 319 320 319 320 321 321 321 321 318 316 315 312 312 318 322 318 320 321 319 315 313 312 294 288 283 277 273 269 270 271 276 275 275 279 287 288 287 291 292 290 292 289 286 282 276 272 273
319 315 310 306 304 303 305 305 310 318 316 319 316 321 323 317 315 312 310 311 311 312 312 315 318 322 319 318 315 311 308 308 306 311 313 311 309 314 316 317 312 309 304 304 306 307 311 312 312 309 308 314 318 320 322 324 322 321 323 316 307 297 293 289 284 281 275 277 281 282 283 284 284 288 294 295 292 295 294 290 284 283 282 277 271
313 310 303 294 285 287 290 295 305 309 314 315 316 323 321 317 316 314 312 310 312 314 316 319 320 318 314 313 313 310 308 306 304 303 305 306 308 315 316 313 306 309 311 317 313 316 313 312 313 313 314 316 316 320 327 331 335 334 333 324 317 306 297 297 295 294 285 277 274 271 274 281 287 287 293 285 279 274 276 278 279 281 280 277 274
310 310 297 292 291 281 279 285 296 300 305 309 315 320 317 312 313 315 315 313 314 313 317 322 318 314 310 307 305 304 303 302 302 300 300 304 305 310 312 314 314 316 315 318 321 319 315 311 312 317 319 320 322 324 337 342 342 342 344 336 325 316 305 300 300 295 292 286 285 280 272 279 286 289 292 285 278 273 273 272 276 280 282 282 277
310 308 307 308 309 300 294 295 294 300 305 311 312 311 310 307 309 312 313 312 315 317 329 325 316 311 306 302 300 297 293 292 292 295 305 307 306 308 310 312 309 307 309 316 322 317 314 307 302 303 305 315 323 331 341 346 344 345 345 327 331 324 315 313 312 312 311 307 304 304 295 286 286 294 300 307 306 300 285 280 279 279 276 274 276
299 300 299 306 312 317 313 310 311 307 310 316 307 302 300 303 307 309 310 310 313 328 326 317 310 306 303 301 298 295 293 296 302 305 303 301 300 301 304 300 304 302 303 307 306 304 307 308 307 303 303 307 318 330 338 349 348 347 347 341 317 327 326 319 317 315 318 315 317 318 324 330 323 316 313 312 310 306 303 298 297 291 287 282 298
295 291 301 312 313 313 309 310 311 313 316 314 310 303 299 301 306 307 305 307 320 326 316 306 305 305 302 298 296 296 301 305 304 300 301 304 302 292 290 295 293 290 285 289 286 284 289 295 301 297 297 308 312 326 326 345 349 348 345 345 320 315 307 308 312 312 312 315 318 320 318 316 315 314 311 309 306 301 292 283 278 277 273 281 289
284 289 304 306 308 306 307 309 313 322 321 317 313 306 303 305 302 297 299 315 328 315 308 307 306 304 303 302 301 301 302 302 304 306 310 306 303 300 292 286 282 283 284 284 287 289 288 286 280 273 284 299 313 316 320 335 346 344 341 338 335 318 320 316 315 310 310 307 307 311 317 309 308 307 305 303 300 298 293 283 272 268 272 275 277
300 301 303 305 305 305 305 307 314 325 324 322 318 310 305 308 306 301 307 325 320 314 312 308 305 303 303 304 304 305 306 306 306 308 307 306 303 302 300 292 286 287 288 291 289 291 291 288 284 278 284 295 310 311 315 320 337 341 336 333 330 327 325 323 312 313 313 307 304 300 297 296 298 299 300 300 299 299 295 277 279 282 283 283 283
311 295 293 302 300 297 301 305 311 322 325 319 319 308 311 312 310 307 329 322 318 317 312 309 304 303 305 306 305 306 307 309 308 310 307 303 303 302 302 300 295 294 296 296 297 290 298 302 308 313 309 315 322 321 319 331 339 338 336 332 330 327 326 316 308 297 296 291 293 291 292 296 298 300 301 302 304 301 289 290 295 294 292 291 284
316 314 311 310 313 310 310 309 311 321 317 311 312 311 310 310 308 321 324 321 323 316 310 305 305 305 306 305 304 304 305 308 313 316 314 311 309 311 307 303 300 299 296 297 299 296 295 300 308 315 319 320 317 321 325 330 334 333 333 331 329 326 323 320 308 287 285 286 289 294 293 295 297 299 302 305 298 293 292 294 296 297 298 292 286
316 315 329 332 320 316 312 308 310 316 311 308 321 322 315 309 317 321 320 330 323 315 310 306 304 305 306 307 307 306 307 309 312 312 312 313 312 312 309 305 305 300 302 300 302 297 302 309 314 318 323 323 324 319 322 325 325 329 328 328 327 324 317 310 300 290 293 300 301 297 299 302 301 301 305 303 304 303 304 300 296 297 301 297 299
319 332 1 338 333 323 319 318 313 318 317 319 334 330 316 316 320 327 338 328 317 310 308 310 310 307 306 309 310 310 313 314 315 312 312 312 312 310 308 309 308 313 316 322 317 311 311 316 322 323 323 326 329 330 331 325 331 328 327 325 324 321 318 311 303 307 310 304 300 301 302 306 303 300 299 296 296 303 307 305 302 299 300 303 299
320 354 3 339 332 328 321 322 320 318 318 336 347 334 327 326 329 343 335 329 318 314 314 312 311 305 305 309 310 312 314 312 313 314 314 312 308 305 306 306 310 313 318 324 316 315 329 332 326 326 326 331 330 334 336 335 337 334 327 325 319 317 314 310 316 317 313 306 305 309 313 314 313 319 317 323 326 324 320 318 316 310 309 305 303
334 353 354 342 340 330 324 323 320 317 325 343 341 335 330 330 338 341 336 330 321 318 313 309 309 311 311 313 311 310 313 313 312 310 302 299 304 307 305 301 299 295 310 317 317 337 337 332 327 331 332 328 333 334 331 339 335 333 331 325 323 317 309 316 318 315 308 308 319 322 324 331 340 336 337 337 339 341 340 338 331 330 331 329 326
342 348 344 343 340 332 325 322 317 319 321 331 334 333 330 331 336 340 337 328 323 321 318 312 312 313 312 313 315 315 314 313 314 314 313 307 300 299 298 299 302 309 316 318 336 356 350 342 333 332 338 333 327 325 335 340 339 336 333 329 325 322 331 333 327 319 322 342 337 330 336 338 339 344 340 340 340 342 341 342 339 336 341 340 340
335 342 339 340 333 330 321 317 317 318 314 319 325 327 328 329 335 339 335 325 323 319 314 312 314 314 314 316 314 315 314 313 314 316 313 311 313 313 307 302 300 307 316 318 343 359 356 351 343 334 337 336 333 337 341 342 343 342 339 336 333 337 350 350 349 341 17 13 357 351 350 347 341 341 342 336 338 339 342 341 336 331 332 341 343